Regional Weather Roundup
Issued by NWS

Home | Current Version | Previous Version | Graphics & Text | Print | Product List | Glossary On
Versions: 1 2 3 4 5 6 7 8 9 10 11 12 13 14 15 16 17 18 19 20 21 22 23 24 25 26 27 28 29 30 31 32 33 34 35 36 37 38 39 40 41 42 43 44 45 46 47 48 49 50
000
ASUS43 KLSX 022010
RWRMO

WEATHER SUMMARY FOR MISSOURI
NATIONAL WEATHER SERVICE SPRINGFIELD MO
200 PM CST FRI DEC 02 2016

NOTE: "FAIR" INDICATES FEW OR NO CLOUDS BELOW 12,000 FEET WITH NO
       SIGNIFICANT WEATHER AND/OR OBSTRUCTIONS TO VISIBILITY.
       CURRENT SKY AND/OR WEATHER CONDITIONS ARE NOT AVAILABLE FOR
       CHILLICOTHE AND FARMINGTON.

MOZ001>031-035>038-043-044-053-054-022100-
...NORTHERN AND WESTERN MISSOURI...

CITY           SKY/WX    TMP DP  RH WIND       PRES   REMARKS
KANSAS CTY INT PTSUNNY   48  27  44 N5        30.27S
KANSAS C DTWN  SUNNY     50  27  40 CALM      30.27S
LEE`S SUMMIT   SUNNY     48  26  42 E3        30.27S
ST JOSEPH      SUNNY     47  27  45 CALM      30.28S
CHILLICOTHE      N/A     47  30  51 VRB5      30.28F
KIRKSVILLE     SUNNY     46  30  53 VRB5      30.25F

$$
MOZ066>068-077>081-088>096-101>105-022100-
...SOUTHWEST MISSOURI...

CITY           SKY/WX    TMP DP  RH WIND       PRES   REMARKS
SPRINGFIELD    SUNNY     55  24  30 E6        30.22F
JOPLIN         PTSUNNY   57  28  33 SE7       30.22F
BRANSON        PTSUNNY   55  28  35 E5        30.23F

$$
MOZ032>034-039>042-045>050-055>058-069>072-022100-
...CENTRAL MISSOURI...

CITY           SKY/WX    TMP DP  RH WIND       PRES   REMARKS
COLUMBIA       SUNNY     49  28  44 W8        30.26F
JEFFERSON CITY SUNNY     50  26  39 NW7       30.27F
ROLLA          SUNNY     50  27  40 N6        30.24F
SEDALIA        SUNNY     50  25  37 NW5       30.28S
WHITEMAN AFB   MOSUNNY   49  26  41 CALM      30.26S
WARRENSBURG    SUNNY     46  28  49 N3        30.28R
OSAGE BEACH    SUNNY     53  24  32 VRB5      30.26F

$$
MOZ051-052-059>065-022100-
...EAST CENTRAL MISSOURI...

CITY           SKY/WX    TMP DP  RH WIND       PRES   REMARKS
ST LOUIS INTL  MOSUNNY   49  29  46 NW6       30.28R
SPIRIT OF STL  MOSUNNY   50  29  44 W8        30.26F
ST CHARLES     SUNNY     46  29  51 W8        30.27S

$$
MOZ072>076-082>087-097>100-106>115-022100-
...SOUTH CENTRAL AND SOUTHEAST MISSOURI...

CITY           SKY/WX    TMP DP  RH WIND       PRES   REMARKS
CAPE GIRARDEAU SUNNY     52  31  44 NE6       30.25F
FARMINGTON     SUNNY     51  29  42 NW7       30.25S
POPLAR BLUFF   SUNNY     53  31  42 CALM      30.26S
WEST PLAINS    SUNNY     55  27  34 CALM      30.25R

$$



USA.gov is the U.S. government's official web portal to all federal, state and local government web resources and services.